Date,TemperatureHighF,TemperatureAvgF,TemperatureLowF,DewpointHighF,DewpointAvgF,DewpointLowF,HumidityHigh,HumidityAvg,HumidityLow,PressureMaxIn,PressureMinIn,WindSpeedMaxMPH,WindSpeedAvgMPH,GustSpeedMaxMPH,PrecipitationSumIn
2013-11-1,75,66,58,64,60,56,98,83,61,29.73,29.55,14,3,17,0.27
2013-11-2,70,54,40,58,43,35,99,71,29,29.83,29.60,17,2,30,0.24
2013-11-3,67,46,35,40,35,32,97,70,28,30.17,29.83,10,2,13,0.00
2013-11-4,63,44,32,35,31,25,94,65,26,30.34,30.17,8,1,11,0.00
2013-11-5,60,46,35,49,38,27,99,72,56,30.36,30.22,8,2,10,0.00
2013-11-6,73,55,46,54,50,45,99,85,49,30.26,29.98,8,1,8,0.00
2013-11-7,70,52,39,57,43,31,99,75,37,29.98,29.81,17,3,19,0.02
2013-11-8,62,43,28,33,25,16,90,57,20,30.14,29.98,10,2,12,0.00
2013-11-9,60,41,28,34,29,24,91,67,29,30.19,30.01,10,1,12,0.00
2013-11-10,74,51,33,38,32,24,93,56,16,30.08,29.95,14,3,16,0.00
2013-11-11,69,43,27,32,26,22,88,58,18,30.15,29.94,5,1,5,0.00
2013-11-12,63,41,31,40,27,12,89,61,30,30.26,29.84,22,6,24,0.00
2013-11-13,59,34,19,20,14,6,77,49,21,30.30,30.20,13,2,14,0.00
2013-11-14,65,36,19,27,20,15,87,58,19,30.26,30.08,8,1,11,0.00
2013-11-15,58,43,25,45,31,18,97,68,28,30.13,29.99,5,1,5,0.00
2013-11-16,61,51,46,54,49,45,99,93,73,30.12,30.03,4,1,5,0.01
2013-11-17,64,59,53,58,56,51,99,93,77,30.06,29.75,7,1,8,0.81
2013-11-18,73,62,50,62,44,28,99,60,20,29.89,29.69,17,4,17,0.06
2013-11-19,60,46,34,31,25,16,72,46,24,30.09,29.86,13,3,14,0.00
2013-11-20,56,42,33,32,29,25,75,61,37,30.26,30.08,8,3,11,0.00
2013-11-21,55,48,42,46,39,30,84,71,63,30.31,30.17,8,2,8,0.00
2013-11-22,64,56,49,56,52,46,99,89,74,30.23,29.95,8,1,11,0.00
2013-11-23,61,53,39,57,39,19,99,66,28,30.04,29.91,20,4,20,0.04
2013-11-24,43,32,21,20,8,-1,61,37,21,30.33,30.02,15,5,21,0.00
2013-11-25,42,29,16,22,9,2,74,47,23,30.33,30.13,4,1,7,0.00
2013-11-26,43,37,31,43,34,19,99,91,53,30.14,29.44,14,2,14,0.00
2013-11-27,44,37,24,44,27,10,99,69,43,29.98,29.33,23,7,27,0.00
2013-11-28,53,30,17,22,16,10,83,58,24,30.26,29.98,6,1,9,0.00
2013-11-29,58,35,21,28,22,18,88,63,25,30.41,30.23,6,1,7,0.00
2013-11-30,53,34,25,24,21,18,82,61,28,30.45,30.14,9,2,9,0.00